Weather in Antonitsi

Ukraine / Khmelnitsky District     49°48′29″N   26°52′00″E
temp.,
°C
wind,
m/s
gust,
m/s
humid.,
%
clouds,
%
prec.,
mm/h
press.,
hPa
HPBL,
m
22 september, wed
wed2200:00+6wnw61186100 0.0 1021694
03:00+6wnw51181100 0.0 1020643
06:00+5wnw499098 0.0 1019273
09:00+7wnw51080100 0.0 1019584
12:00+10nw686492 0.1 10171417
15:00+7nnw7982100 0.5 10181047
18:00+6nw6889100 0.3 10181012
21:00+5nw5893100 0.8 10191074
23 september, thu
thu2300:00+6nw4891100 0.4 10181017
03:00+5nnw5891100 0.6 1018841
06:00+5nw4792100 0.1 1018764
09:00+6wnw5893100 0.1 1018830
12:00+8wnw5878100 0.1 1018857
15:00+11wnw6957100 0.1 10161575
18:00+11w4869100 0.1 1014800
21:00+10wsw51377100 0.3 1013607
24 september, fri
fri2400:00+10wsw71568100 0.0 1011589
03:00+10sw71772100 0.4 1008674
06:00+12wsw101962100 0.2 1004938
09:00+11w112182100 1.4 10041557
12:00+13wnw10166481 0.4 10051629
15:00+12wnw9136595 0.6 10071695
18:00+11wnw9146799 0.1 10081281
21:00+9wnw91573100 0.1 1011866
25 september, sat
sat2500:00+9wnw81473100 0.0 1012781
03:00+9wnw71472100 0.0 1012683
06:00+7wnw6147868 0.0 1015480
09:00+9w51270100 0.0 1016526
12:00+15wnw81159100 0.0 10161007
15:00+15w7126639 0.0 1016930
18:00+16wnw61268100 0.0 1017929
21:00+13w498442 0.0 1019207
26 september, sun
sun2600:00+15w61271100 0.0 1019491
03:00+14w5116895 0.1 1020445
06:00+12wnw378066 0.0 1020186
09:00+14nw587961 0.0 1021476
12:00+17nw566448 0.0 1022977
15:00+19nnw5660100 0.0 10221298
18:00+16n366998 0.0 1022587
21:00+12n338278 0.0 102230